Location: Bavegemberg
(50.9500°N, 3.8833°E)
Time: 06:02:37
(UTC+00:00)

ADEOS II - Pass Details

Date: 23 May 2024
Orbit: 796 x 798 km, 98.7° (Epoch: 19 June)

Event Time Altitude Azimuth Distance (km) Brightness Sun altitude
Rises 02:51:50 0° 11° (NNE) 3,314 6.4 -7.1°
Reaches altitude 10° 02:54:14 10° 7° (N) 2,380 5.4 -6.8°
Maximum altitude 02:59:18 51° 293° (WNW) 995 2.5 -6.2°
Drops below altitude 10° 03:04:20 10° 218° (SW) 2,363 3.9 -5.7°
Enters shadow 03:05:12 - 216° (SW) 2,695 4.2 -5.6°
